SCP
0 0 0 0 0 0 0 0 0 0 0 0 0 0 0 0 0 0 0 0 0 0 0 0 0 0 0 0 0 0 0 0 0 0 0 0 0 0 0 0 0 0 0
0 0 0 0 0 0 0 0 0 0 0 0 0 0 0 0 0 0 0 0 0 0 0 0 0 0 0 0 0 0 0 0 0 0 0 0 0 0 0 0 0 0 0
0 0 0 0 0 0 0 0 0 0 0 0 0 0 0 0 0 0 0 0 0 0 0 0 0 0 0 0 0 0 0 0 0 0 0 0 0 0 0 0 0 0 0
0 0 0 0 0 0 0 0 0 0 0 0 0 0 0 0 0 0 0 0 0 0 0 0 0 0 0 0 0 0 0 0 0 0 0 0 0 0 0 0 0 0 0
0 0 0 0 0 0 0 0 0 0 0 0 0 0 0 0 0 0 0 0 0 0 0 0 0 0 0 0 0 0 0 0 0 0 0 0 0 0 0 0 0 0 0
0 0 0 0 0 0 0 0 0 0 0 0 0 0 0 0 0 0 0 0 0 0 0 0 0 0 0 0 0 0 0 0 0 0 0 0 0 0 0 0 0 0 0
0 0 0 0 0 0 0 0 0 0 0 0 0 0 0 0 0 0 0 0 0 0 0 0 0 0 0 0 0 0 0 0 0 0 0 0 0 0 0 0 0 0 0
0 0 0 0 0 0 0 0 0 0 0 0 0 0 0 0 0 0 0 0 0 0 0 0 0 0 0 0 0 0 0 0 0 0 0 0 0 0 0 0 0 0 0
0 0 0 0 0 0 0 0 0 0 0 0 0 0 0 0 0 0 0 0 0 0 0 0 0 0 0 0 0 0 0 0 0 0 0 0 0 0 0 0 0 0 0
0 0 0 0 0 0 0 0 0 0 0 0 0 0 0 0 0 0 0 0 0 0 0 0 0 0 0 0 0 0 0 0 0 0 0 0 0 0 0 0 0 0 0
0 0 0 0 0 0 0 0 0 0 0 0 0 0 0 0 0 0 0 0 0 0 0 0 0 0 0 0 0 0 0 0 0 0 0 0 0 0 0 0 0 0 0
0 0 0 0 0 0 0 0 0 0 0 0 0 0 0 0 0 0 0 0 0 0 0 0 0 0 0 0 0 0 0 0 0 0 0 0 0 0 0 0 0 0 0
0 0 0 0 0 0 0 0 0 0 0 0 0 0 0 0 0 0 0 0 0 0 0 0 0 0 0 0 0 0 0 0 0 0 0 0 0 0 0 0 0 0 0
0 0 0 0 0 0 0 0 0 0 0 0 0 0 0 0 0 0 0 0 0 0 0 0 0 0 0 0 0 0 0 0 0 0 0 0 0 0 0 0 0 0 0
0 0 0 0 0 0 0 0 0 0 0 0 0 0 0 0 0 0 0 0 0 0 0 0 0 0 0 0 0 0 0 0 0 0 0 0 0 0 0 0 0 0 0
0 0 0 0 0 0 0 0 0 0 0 0 0 0 0 0 0 0 0 0 0 0 0 0 0 0 0 0 0 0 0 0 0 0 0 0 0 0 0 0 0 0 0
0 0 0 0 0 0 0 0 0 0 0 0 0 0 0 0 0 0 0 0 0 0 0 0 0 0 0 0 0 0 0 0 0 0 0 0 0 0 0 0 0 0 0
0 0 0 0 0 0 0 0 0 0 0 0 0 0 0 0 0 0 0 0 0 0 0 0 0 0 0 0 0 0 0 0 0 0 0 0 0 0 0 0 0 0 0
0 0 0 0 0 0 0 0 0 0 0 0 0 0 0 0 0 0 0 0 0 0 0 0 0 0 0 0 0 0 0 0 0 0 0 0 0 0 0 0 0 0 0
0 0 0 0 0 0 0 0 0 0 0 0 0 0 0 0 0 0 0 0 0 0 0 0 0 0 0 0 0 0 0 0 0 0 0 0 0 0 0 0 0 0 0
0 0 0 0 0 0 0 0 0 0 0 0 0 0 0 0 0 0 0 0 0 0 0 0 0 0 0 0 0 0 0 0 0 0 0 0 0 0 0 0 0 0 0
0 0 0 0 0 0 0 0 0 0 0 0 0 0 0 0 0 0 0 0 0 0 0 0 0 0 0 0 0 0 0 0 0 0 0 0 0 0 0 0 0 0 0
0 0 0 0 0 0 0 0 0 0 0 0 0 0 0 0 0 0 0 0 0 0 0 0 0 0 0 0 0 0 0 0 0 0 0 0 0 0 0 0 0 0 0
0 0 0 0 0 0 0 0 0 0 0 0 0 0 0 0 0 0 0 0 0 0 0 0 0 0 0 0 0 0 0 0 0 0 0 0 0 0 0 0 0 0 0
0 0 0 0 0 0 0 0 0 0 0 0 0 0 0 0 0 0 0 0 0 0 0 0 0 0 0 0 0 0 0 0 0 0 0 0 0 0 0 0 0 0 0
0 0 0 0 0 0 0 0 0 0 0 0 0 0 0 0 0 0 0 0 0 0 0 0 0 0 0 0 0 0 0 0 0 0 0 0 0 0 0 0 0 0 0
Wind_Speed
1 1 1 1 1 1 1 1 1 1 1 1 2 2 2 2 3 3 3 3 3 3 3 4 4 4 3 3 3 3 3 4 5 4 3 3 4 4 3 3 3 3 3
1 1 1 1 1 1 1 1 1 1 1 2 2 3 3 3 3 3 3 4 4 4 4 4 4 3 4 3 3 4 4 4 5 6 4 3 4 4 4 4 3 3 3
1 1 1 1 1 1 1 1 1 1 2 2 2 3 3 3 3 3 4 4 4 5 5 5 5 4 4 3 4 4 3 3 4 5 4 3 3 3 4 4 4 4 4
1 2 2 2 2 2 2 1 2 2 2 2 2 3 3 3 4 4 4 4 4 5 5 5 5 5 5 4 4 4 4 4 4 4 4 4 4 3 3 3 4 3 4
2 2 2 2 2 1 1 1 1 2 2 2 3 3 3 3 3 3 4 4 4 4 4 4 5 5 5 5 4 4 4 4 4 4 4 4 4 3 4 3 4 4 4
2 2 2 2 2 2 1 1 2 2 2 2 3 3 3 3 4 5 5 4 4 4 4 4 4 5 6 6 7 6 6 5 5 5 5 5 6 5 4 4 4 4 4
2 2 2 2 2 2 2 2 2 2 2 2 3 3 3 4 5 6 6 4 4 4 4 4 4 4 5 5 6 6 6 7 8 6 7 7 6 5 5 6 6 6 5
3 3 2 2 2 2 2 2 2 2 2 3 3 3 3 4 5 5 5 4 4 4 4 4 4 4 4 5 4 5 5 6 6 6 6 6 6 5 6 6 6 6 5
3 3 3 2 2 2 2 3 2 2 3 3 3 3 3 4 5 5 5 3 3 4 3 4 4 5 6 7 5 5 5 5 5 6 6 6 7 7 5 4 4 4 5
3 3 3 3 3 3 3 3 2 2 3 3 3 3 4 4 5 5 5 3 3 3 3 4 5 6 7 7 6 6 6 5 4 4 5 6 6 6 6 5 5 5 4
3 2 2 3 3 3 2 2 2 2 2 2 3 3 3 4 5 5 5 3 3 3 3 3 3 6 7 7 7 6 7 6 5 4 4 4 4 4 4 4 4 5 5
2 2 2 2 2 2 2 2 2 2 2 3 3 3 3 3 4 4 5 5 5 4 4 4 4 6 7 7 6 6 7 6 4 4 4 4 4 4 4 4 5 5 5
2 2 2 2 2 2 2 2 2 2 2 2 2 3 3 2 3 5 6 6 6 4 3 5 6 7 7 5 6 7 6 4 4 4 5 4 4 4 4 4 4 4 4
2 2 2 2 2 2 2 2 2 2 3 3 3 3 3 3 3 3 3 3 4 3 3 4 6 6 5 5 5 4 4 4 4 4 4 4 3 3 4 4 4 4 4
2 2 2 2 2 2 2 2 3 3 4 4 3 3 3 3 4 5 4 3 3 3 3 2 3 3 3 3 3 3 3 3 4 4 4 4 4 4 4 4 4 4 4
2 2 2 2 2 2 2 2 3 4 5 6 6 5 4 6 6 7 7 6 5 5 3 3 3 3 3 3 4 3 4 4 4 4 4 4 4 4 4 4 4 4 5
3 2 2 2 2 2 2 2 2 3 4 4 5 5 5 6 6 7 6 6 5 4 3 3 3 3 3 3 3 4 4 4 4 4 4 4 4 4 4 4 4 5 5
3 3 3 2 2 2 2 2 2 3 3 3 3 5 5 5 6 6 6 5 3 2 2 3 3 3 3 3 4 4 4 4 4 4 4 5 5 5 5 5 5 5 5
3 2 2 2 2 2 2 2 2 3 3 3 3 3 4 4 5 4 4 3 3 3 3 3 3 3 3 4 4 4 4 4 4 4 4 5 4 5 5 5 5 7 6
2 4 3 2 2 2 2 2 3 3 3 3 3 3 3 3 3 3 3 2 3 3 3 3 3 3 4 4 4 4 4 4 4 4 4 4 4 4 5 6 5 5 5
2 2 3 3 2 2 3 3 3 3 3 3 4 4 5 4 3 3 3 3 3 3 3 3 3 4 4 4 4 4 5 4 4 5 5 4 4 4 4 5 5 5 5
2 2 2 2 2 3 3 3 3 3 4 4 4 4 5 4 3 3 3 3 3 3 4 4 4 4 4 4 4 4 5 5 5 5 5 5 5 5 5 5 5 4 5
2 3 3 2 2 3 3 3 3 3 4 4 4 4 3 3 3 4 4 4 4 4 4 4 4 4 4 4 5 5 5 5 5 5 5 5 5 5 5 5 6 5 5
2 3 3 2 3 3 3 3 3 4 4 4 4 4 4 4 4 4 4 4 4 4 4 4 5 6 7 6 5 5 5 6 6 6 7 7 6 6 5 5 6 6 5
2 2 2 3 3 3 3 3 3 4 4 4 4 4 4 4 4 4 4 4 5 5 5 5 5 5 7 8 8 7 9 11 10 7 7 7 7 7 6 6 5 5 5
2 2 2 3 3 3 3 3 4 4 4 4 4 4 4 5 5 5 4 4 4 5 5 5 6 7 9 8 9 11 12 12 12 12 8 6 7 6 6 6 7 6 6
Wind_Direction
247 247 253 258 256 240 236 235 232 234 238 242 251 251 249 250 241 237 234 230 232 241 244 239 242 246 245 245 244 244 250 250 250 262 265 267 262 265 276 279 282 278 282
258 247 248 257 249 240 247 256 258 252 249 250 250 247 246 248 245 241 241 240 238 237 240 243 248 250 248 246 242 241 246 253 249 257 261 263 261 267 274 275 278 281 281
256 244 245 250 251 256 260 259 264 266 266 259 255 253 253 253 250 247 246 244 244 243 240 238 240 241 246 249 249 247 248 253 254 252 261 267 264 260 269 271 275 278 284
249 245 248 257 261 264 270 263 262 265 265 263 266 265 263 261 258 254 250 253 250 247 245 244 242 242 246 249 250 251 252 252 252 248 251 257 259 256 258 265 274 277 278
239 244 253 264 265 265 267 271 272 268 269 270 270 270 267 262 256 258 256 253 253 254 251 250 251 251 253 251 252 252 251 249 248 250 249 251 248 243 248 258 265 275 276
240 247 253 252 252 257 264 271 273 274 275 269 264 266 267 267 269 270 267 257 253 249 256 259 254 246 239 242 250 254 254 248 246 250 254 251 252 250 251 250 255 263 265
244 246 242 241 244 249 252 258 264 272 273 272 270 266 267 274 271 272 270 268 257 252 249 254 259 254 252 249 247 247 254 253 251 253 253 256 258 254 249 247 247 252 260
247 248 244 235 238 244 244 251 265 274 266 268 268 270 275 275 271 270 271 265 260 256 252 249 255 262 256 258 257 259 261 262 258 256 256 262 267 264 253 250 253 258 270
249 252 253 246 243 244 247 256 268 265 263 265 270 272 272 273 272 271 272 264 255 259 263 260 255 257 253 250 252 256 263 268 260 254 260 266 272 271 263 252 245 245 258
259 260 259 252 243 243 248 259 267 261 262 270 275 277 274 272 271 272 274 256 252 258 259 259 256 260 262 250 249 251 256 265 270 267 260 262 264 261 252 247 244 246 255
268 262 260 256 249 247 250 255 252 253 258 267 273 276 275 273 273 273 277 264 251 259 259 260 260 260 266 266 260 255 255 263 264 260 261 264 264 259 250 248 249 248 246
266 261 262 263 262 251 242 248 246 243 244 252 263 276 274 269 270 272 274 267 258 258 260 261 261 266 273 274 270 261 258 258 255 254 255 255 257 255 252 250 251 253 258
263 265 270 272 269 258 245 243 244 238 241 252 257 267 276 275 269 271 274 271 269 266 262 262 268 272 276 274 269 266 262 256 250 251 255 257 257 261 257 253 252 254 260
257 266 266 266 267 264 256 249 247 243 243 247 253 262 273 275 273 272 273 269 271 272 268 261 262 264 265 262 264 264 259 253 251 253 259 262 260 256 252 250 252 250 255
253 255 260 262 263 268 268 267 262 256 256 257 258 262 265 269 274 284 284 274 268 266 267 256 255 258 259 257 258 258 256 250 249 250 252 255 252 253 258 256 253 249 250
247 254 257 258 258 261 272 289 288 278 277 275 274 272 274 273 280 281 285 282 279 273 267 253 257 260 260 261 262 263 259 258 256 253 251 253 252 250 256 258 252 249 253
244 256 259 254 252 256 262 270 290 306 295 287 283 284 285 286 287 288 290 286 278 271 264 262 264 264 267 268 268 268 268 268 266 258 253 253 254 252 251 253 251 253 256
253 257 261 258 258 259 260 263 269 277 287 289 290 289 292 292 292 293 293 289 270 267 268 266 265 266 267 269 270 271 273 273 267 261 257 253 250 250 250 250 249 252 255
259 256 257 261 260 262 264 265 266 268 273 282 291 292 295 299 297 296 297 278 268 269 272 272 274 274 272 270 271 271 271 270 269 267 263 257 251 249 250 251 250 251 252
260 269 275 271 266 264 262 261 264 266 272 277 282 291 300 298 291 294 292 280 271 273 276 275 275 276 276 276 272 270 269 268 266 262 263 259 254 250 251 251 252 250 248
269 266 277 279 271 268 266 266 268 268 270 277 281 284 289 288 284 285 286 284 280 279 281 281 279 278 276 275 273 268 266 267 267 266 262 259 256 251 253 255 256 253 252
264 264 264 267 268 268 270 271 272 272 276 279 285 285 288 286 281 279 281 282 283 283 283 281 277 275 273 271 270 270 267 265 266 266 265 261 257 253 251 252 254 253 252
263 263 265 262 263 268 275 270 271 272 273 276 282 285 283 279 277 277 279 281 283 284 283 278 276 275 274 272 269 266 265 266 266 266 266 264 257 252 252 252 250 250 251
265 267 269 268 268 269 272 273 273 273 274 275 276 276 276 276 275 275 277 279 280 280 278 275 274 276 278 278 272 266 263 265 267 262 258 258 258 255 252 252 250 247 247
278 279 277 275 276 276 277 277 277 277 277 276 275 275 276 276 276 277 277 276 278 279 280 279 275 275 275 276 275 273 271 270 267 262 257 255 254 252 251 249 248 248 244
294 289 285 280 277 276 275 276 278 281 280 280 278 276 275 274 274 275 276 275 278 280 281 280 280 282 281 277 274 274 274 271 268 266 263 257 252 250 248 246 243 243 241